[[{"header":{"parameterUnit":"m.s-1","parameterCategory":1,"la1":30.2991,"la2":30.254,"lo1":-89.0895,"lo2":-89.0444,"dy":0.0017,"dx":0.0017,"nx":28,"ny":28,"refTime":"2024-05-08T21:00:00:Z","depth":0,"parameterNumber":2,"parameterNumberName":"U-component_of_WINDS"},"data":[0,0,0,0,0,0,0,0,0,0,0,0,0,0,0,0,0,0,0,0,0,0,0,0,0,0,0,0,0,0,0,0,0,0,0,0,0,0,0,0,0,0,0,0,0,0,0,0,0,0,0,0,0,0,0,0,0,0,0.8588,0.8588,0,0.8616,0.8616,0.8617,0.86,0.8599,0.8598,0.8597,0.8627,0.8629,0.863,0,0,0,0,0,0,0,0,0,0,0,0,0,0.8519,0.8521,0.8588,0.8588,0.8588,0.8616,0.8616,0.8617,0.86,0.8599,0.8598,0.8597,0.8627,0.8629,0.863,0,0,0,0,0,0,0,0,0,0,0,0,0,0.8548,0.8521,0.8588,0.8583,0.8583,0.8616,0.8616,0.8617,0.86,0.8599,0.8598,0.8597,0.8626,0.8628,0.8631,0.8669,0,0,0.8638,0.8639,0,0,0,0,0,0,0,0,0.8547,0.8551,0.8584,0.8584,0.8584,0.8603,0.8603,0.8634,0.86,0.8594,0.8597,0.8596,0.862,0.8623,0.8631,0.8671,0.8672,0.8638,0.8639,0.864,0.8641,0,0,0,0,0,0,0,0.8545,0.855,0.8599,0.8584,0.8584,0.858,0.8583,0.8609,0.8614,0.8594,0.8593,0.8597,0.862,0.8629,0.8632,0.8672,0.8638,0.864,0.8641,0.8642,0.8744,0.8745,0,0,0,0,0,0,0.8543,0.8548,0.8598,0.86,0.8562,0.8582,0.8585,0.8598,0.8613,0.8614,0.8598,0.8596,0.8625,0.8629,0.8633,0.8678,0.864,0.8643,0.8644,0.8743,0.8744,0.8746,0,0,0,0,0,0,0.8542,0.8548,0.8597,0.8574,0.858,0.8585,0.8599,0.8599,0.8608,0.8616,0.8616,0.8606,0.8625,0.8629,0.866,0.8679,0.8644,0.8646,0.8741,0.8743,0.8745,0.8769,0,0,0,0,0,0,0.854,0.8547,0.8562,0.8574,0.8581,0.8624,0.86,0.8601,0.8612,0.861,0.8623,0.8625,0.8624,0.8656,0.8662,0.8681,0.8648,0.8739,0.8742,0.8744,0.8767,0.8772,0.8776,0,0,0,0,0,0.8537,0.8568,0.8563,0.8569,0.86,0.8625,0.8629,0.8627,0.8613,0.8628,0.8633,0.8624,0.8676,0.866,0.8666,0.8686,0.8738,0.8741,0.8744,0.8765,0.8771,0.8776,0,0,0,0,0,0,0.8559,0.857,0.8564,0.86,0.8612,0.8622,0.8641,0.8634,0.865,0.8647,0.8645,0.8648,0.868,0.8686,0.8668,0.8723,0.8705,0.8709,0.8718,0.8724,0.8729,0.8726,0.8649,0,0,0,0,0,0.8568,0.8588,0.8596,0.8627,0.8633,0.8636,0.8647,0.8645,0.8657,0.8662,0.8669,0.8681,0.87,0.8712,0.873,0.8768,0.877,0.8784,0.8789,0.8793,0.8796,0.8815,0.8822,0.8755,0.8755,0.8755,0,0,0.8587,0.8595,0.8608,0.8631,0.864,0.866,0.864,0.8663,0.8678,0.8665,0.8694,0.87,0.8713,0.8747,0.8762,0.8753,0.8815,0.8796,0.8799,0.8801,0.8819,0.8825,0.8831,0.8757,0.8757,0.8756,0,0,0.8631,0.864,0.8666,0.8675,0.8688,0.8689,0.8695,0.8707,0.871,0.8739,0.8729,0.8747,0.878,0.879,0.8799,0.8845,0.8837,0.8851,0.8875,0.8894,0.8899,0.8904,0.892,0.8925,0.8855,0.8855,0.8855,0,0.8653,0.8683,0.868,0.8703,0.8713,0.8702,0.8728,0.8737,0.8755,0.8763,0.8752,0.8792,0.88,0.8836,0.8847,0.8855,0.8862,0.885,0.8899,0.8903,0.8907,0.8922,0.8928,0.8856,0.8856,0.8856,0.8856,0,0.8708,0.8729,0.8749,0.8766,0.8778,0.8803,0.8803,0.8816,0.8812,0.8815,0.8844,0.8854,0.8873,0.8881,0.8878,0.8916,0.8909,0.8899,0.888,0.8915,0.8929,0.8935,0.8859,0.8858,0.8858,0.8857,0,0,0.8768,0.8782,0.8789,0.8796,0.881,0.8826,0.8849,0.8867,0.8878,0.8891,0.891,0.8938,0.8927,0.8938,0.8936,0.8952,0.8987,0.8939,0.894,0.8947,0.9028,0.9035,0.9042,0.8982,0.8983,0.8984,0.9027,0,0.8812,0.8853,0.885,0.8888,0.8907,0.8896,0.8917,0.8927,0.893,0.8946,0.8949,0.8968,0.8954,0.896,0.8975,0.898,0.9003,0.8977,0.9,0.9,0.8996,0.905,0.9058,0.9098,0.9032,0.9033,0.9034,0,0.8869,0.8883,0.8923,0.8932,0.894,0.8959,0.8974,0.899,0.9001,0.9002,0.9013,0.9008,0.9031,0.9011,0.9043,0.9025,0.9034,0.9038,0.9039,0.9041,0.9019,0.9052,0.911,0.9116,0.9043,0.9042,0.9041,0,0.8907,0.8936,0.8964,0.897,0.8982,0.8995,0.9,0.901,0.9021,0.9035,0.9041,0.9058,0.9067,0.908,0.9079,0.9065,0.9111,0.9091,0.9112,0.9112,0.9122,0.9121,0.9181,0.9129,0.9129,0.9128,0.9128,0,0.8957,0.8982,0.8981,0.8997,0.9024,0.9021,0.9048,0.9052,0.9061,0.9078,0.907,0.9086,0.9084,0.91,0.91,0.9126,0.913,0.9131,0.9131,0.9132,0.9131,0.9137,0.9134,0.913,0.913,0.9129,0.9129,0,0.9004,0.9005,0.9033,0.9042,0.9044,0.9064,0.9071,0.9086,0.9088,0.911,0.9115,0.9117,0.9136,0.9136,0.9158,0.9158,0.9189,0.9186,0.9185,0.9184,0.9204,0.9202,0.927,0.9278,0.9221,0.9221,0.9222,0,0.9035,0.9054,0.9064,0.9074,0.908,0.9098,0.9108,0.9106,0.9117,0.913,0.9144,0.9162,0.9175,0.9206,0.921,0.9226,0.9223,0.9245,0.9225,0.9225,0.9222,0.922,0.9222,0.9249,0.925,0.925,0.9251,0,0.909,0.9089,0.9105,0.912,0.9132,0.9144,0.9155,0.9164,0.9162,0.9175,0.9194,0.9205,0.9226,0.9243,0.9259,0.9264,0.9257,0.9257,0.9262,0.9263,0.9262,0.9262,0.9195,0.9256,0.9255,0.9255,0.9254,0.9254,0.913,0.9145,0.9154,0.9171,0.9179,0.9189,0.9204,0.9207,0.9222,0.9239,0.9237,0.9257,0.9267,0.9286,0.9293,0.9309,0.9301,0.9309,0.9311,0.9313,0.9315,0.926,0.9312,0.9312,0.9312,0.9312,0.9312,0,0.9184,0.9189,0.9204,0.9219,0.9232,0.9224,0.9235,0.9247,0.9265,0.9274,0.9288,0.9308,0.9325,0.933,0.9346,0.9357,0.9354,0.9362,0.936,0.9362,0.9321,0.9315,0.9364,0.9364,0.9364,0.9364,0.9364,0.9364,0.9213,0.9238,0.9238,0.9267,0.9272,0.9291,0.9298,0.9308,0.9315,0.9338,0.9352,0.9355,0.9362,0.9378,0.9393,0.9394,0.94,0.9408,0.9408,0.937,0.9365,0.936,0.9353,0.941,0.941,0.9447,0.9447,0.9447]},{"header":{"parameterUnit":"m.s-1","parameterCategory":1,"la1":30.2991,"la2":30.254,"lo1":-89.0895,"lo2":-89.0444,"dy":0.0017,"dx":0.0017,"nx":28,"ny":28,"refTime":"2024-05-08T21:00:00:Z","depth":0,"parameterNumber":3,"parameterNumberName":"V-component_of_WINDS"},"data":[0,0,0,0,0,0,0,0,0,0,0,0,0,0,0,0,0,0,0,0,0,0,0,0,0,0,0,0,0,0,0,0,0,0,0,0,0,0,0,0,0,0,0,0,0,0,0,0,0,0,0,0,0,0,0,0,0,0,5.5036,5.5037,0,5.5171,5.5173,5.5174,5.5169,5.5167,5.5165,5.5163,5.5297,5.5302,5.5307,0,0,0,0,0,0,0,0,0,0,0,0,0,5.4766,5.4771,5.5035,5.5037,5.5039,5.5171,5.5173,5.5175,5.5169,5.5167,5.5164,5.5162,5.5295,5.5301,5.5308,0,0,0,0,0,0,0,0,0,0,0,0,0,5.489,5.4772,5.5035,5.5052,5.5055,5.5171,5.5173,5.5175,5.517,5.5167,5.5164,5.5161,5.5293,5.5301,5.5308,5.5415,0,0,5.5333,5.5336,0,0,0,0,0,0,0,0,5.4883,5.49,5.5048,5.5051,5.5055,5.515,5.5127,5.5255,5.517,5.5126,5.5163,5.516,5.525,5.5261,5.5293,5.5421,5.5426,5.5334,5.5338,5.5342,5.5344,0,0,0,0,0,0,0,5.4875,5.4894,5.5089,5.505,5.5054,5.5051,5.5066,5.5151,5.5202,5.513,5.5129,5.5146,5.5251,5.5285,5.5296,5.5428,5.5333,5.534,5.5345,5.5348,5.565,5.5653,0,0,0,0,0,0,5.4863,5.4887,5.5085,5.5093,5.496,5.5058,5.5075,5.5122,5.5201,5.521,5.5148,5.5145,5.5273,5.5287,5.53,5.543,5.5342,5.5349,5.5354,5.5647,5.5651,5.5655,0,0,0,0,0,0,5.4857,5.4881,5.5079,5.499,5.5015,5.5066,5.512,5.5127,5.5161,5.5215,5.5224,5.5174,5.5271,5.5289,5.5387,5.5435,5.5353,5.536,5.5643,5.5648,5.5653,5.569,0,0,0,0,0,0,5.485,5.4879,5.4921,5.4991,5.502,5.5165,5.5123,5.5131,5.5175,5.5172,5.5242,5.525,5.527,5.5375,5.5395,5.5444,5.5366,5.5639,5.5646,5.5651,5.5685,5.5696,5.5705,0,0,0,0,0,5.484,5.4925,5.4923,5.4947,5.5074,5.5168,5.5184,5.5207,5.5179,5.5221,5.5256,5.5248,5.5426,5.5385,5.5407,5.546,5.5636,5.5644,5.5651,5.5681,5.5694,5.5705,0,0,0,0,0,0,5.4856,5.4934,5.4933,5.5044,5.5099,5.5167,5.522,5.522,5.5283,5.5278,5.5302,5.5317,5.5415,5.5447,5.5399,5.5567,5.5527,5.554,5.5543,5.5556,5.5565,5.5556,5.5373,0,0,0,0,0,5.4873,5.4945,5.5008,5.5099,5.5127,5.5169,5.5211,5.5224,5.5281,5.5304,5.5347,5.5402,5.547,5.5514,5.558,5.569,5.5704,5.5737,5.5747,5.5755,5.5765,5.5825,5.584,5.5678,5.5678,5.5678,0,0,5.4908,5.4959,5.5003,5.5104,5.5148,5.522,5.5189,5.5266,5.5319,5.5315,5.5411,5.5444,5.5506,5.561,5.5658,5.564,5.5813,5.5764,5.577,5.5776,5.5834,5.585,5.5863,5.5683,5.5683,5.5682,0,0,5.5008,5.5055,5.5136,5.5182,5.5251,5.5278,5.5298,5.5366,5.5388,5.5484,5.5483,5.5546,5.5663,5.5708,5.5746,5.5864,5.5859,5.5885,5.5937,5.5996,5.6009,5.602,5.6062,5.6077,5.5895,5.5895,5.5895,0,5.5043,5.5153,5.5177,5.5256,5.53,5.5302,5.5384,5.5426,5.5512,5.5542,5.5521,5.5669,5.5711,5.5826,5.5855,5.5886,5.5908,5.5877,5.6005,5.6017,5.6028,5.6068,5.6084,5.5897,5.5897,5.5897,5.5896,0,5.5191,5.5268,5.5325,5.541,5.5461,5.554,5.5575,5.5623,5.5632,5.5661,5.5758,5.581,5.5886,5.5914,5.5922,5.603,5.6017,5.6,5.5961,5.6046,5.6084,5.61,5.5901,5.59,5.5899,5.5899,0,0,5.5306,5.5405,5.5425,5.5464,5.5541,5.5599,5.5678,5.5755,5.5796,5.5855,5.5921,5.6021,5.6006,5.6049,5.6063,5.6114,5.6204,5.6091,5.6093,5.611,5.6326,5.6339,5.6357,5.6202,5.6205,5.6207,5.6321,0,5.5414,5.5558,5.5582,5.5706,5.5777,5.578,5.5849,5.5902,5.5931,5.5994,5.6025,5.6096,5.6071,5.6097,5.6148,5.6183,5.6248,5.6175,5.6263,5.6265,5.6247,5.6377,5.639,5.6496,5.6336,5.6339,5.6341,0,5.5561,5.5626,5.5758,5.5825,5.5856,5.5917,5.599,5.605,5.611,5.6128,5.6177,5.6184,5.6265,5.6222,5.6334,5.6283,5.632,5.6343,5.6347,5.6357,5.6309,5.639,5.653,5.6546,5.6365,5.6363,5.6361,0,5.5631,5.5752,5.5847,5.588,5.5961,5.6004,5.6039,5.6097,5.6141,5.6204,5.6233,5.6304,5.6342,5.6396,5.6422,5.6388,5.6531,5.6491,5.6547,5.6547,5.6577,5.6575,5.6726,5.6601,5.6601,5.66,5.66,0,5.575,5.5831,5.588,5.5938,5.6028,5.6055,5.6143,5.6177,5.6228,5.6292,5.6297,5.6357,5.6387,5.6451,5.6471,5.656,5.6577,5.6593,5.6597,5.6593,5.6591,5.6618,5.6611,5.6604,5.6604,5.6603,5.6602,0,5.5845,5.5881,5.5985,5.6053,5.6072,5.6136,5.6193,5.6249,5.6278,5.6359,5.6379,5.6424,5.6499,5.6531,5.6622,5.6636,5.6738,5.6737,5.6719,5.672,5.6775,5.677,5.6948,5.6973,5.6832,5.6833,5.6834,0,5.5919,5.5981,5.6057,5.6101,5.6139,5.6209,5.6256,5.6284,5.6331,5.6405,5.6452,5.6527,5.6589,5.6709,5.6749,5.6819,5.6819,5.6877,5.683,5.6823,5.6821,5.6817,5.6823,5.6886,5.6887,5.6888,5.6889,0,5.6046,5.6061,5.6129,5.6203,5.6258,5.6317,5.6375,5.641,5.6447,5.65,5.6578,5.6626,5.6721,5.6795,5.6868,5.6902,5.6902,5.6904,5.6921,5.6917,5.6904,5.6912,5.6743,5.69,5.6899,5.6898,5.6897,5.6897,5.6133,5.6189,5.6251,5.6326,5.6373,5.6427,5.6483,5.652,5.6586,5.6667,5.6678,5.6762,5.682,5.6918,5.6955,5.702,5.7005,5.7029,5.7035,5.7041,5.7045,5.6894,5.7033,5.7032,5.7032,5.7032,5.7032,0,5.6261,5.6302,5.637,5.6452,5.6511,5.6507,5.657,5.6619,5.6693,5.6748,5.681,5.6899,5.6972,5.7018,5.7091,5.7134,5.7136,5.7152,5.7149,5.7157,5.7054,5.7032,5.715,5.715,5.715,5.715,5.715,5.715,5.6335,5.6429,5.6452,5.6569,5.6608,5.6692,5.6728,5.6778,5.6822,5.6922,5.6984,5.7014,5.7065,5.7142,5.7208,5.7219,5.7246,5.7264,5.7274,5.7177,5.7165,5.7153,5.7133,5.7269,5.727,5.7373,5.7374,5.7374]}]]